Time,TemperatureF,DewpointF,PressureIn,WindDirection,WindDirectionDegrees,WindSpeedMPH,WindSpeedGustMPH,Humidity,HourlyPrecipIn,Conditions,Clouds,dailyrainin,SoftwareType,DateUTC
2013-05-30 00:01:00,73.0,68.5,29.78,SE,135,17.0,17.0,86,0.00,,,0.00,meteohub,2013-05-30 05:01:00,
2013-05-30 00:06:00,72.9,68.7,29.78,SE,135,17.0,17.0,87,0.00,,,0.00,meteohub,2013-05-30 05:06:00,
2013-05-30 00:12:00,72.3,68.9,29.77,East,90,13.0,17.0,89,0.02,,,0.02,meteohub,2013-05-30 05:12:00,
2013-05-30 00:17:00,72.1,69.1,29.77,ESE,113,15.0,17.0,90,0.02,,,0.02,meteohub,2013-05-30 05:17:00,
2013-05-30 00:22:00,72.1,69.1,29.77,South,180,11.0,17.0,90,0.02,,,0.02,meteohub,2013-05-30 05:22:00,
2013-05-30 00:27:00,72.1,68.7,29.77,South,180,10.0,17.0,89,0.02,,,0.02,meteohub,2013-05-30 05:27:00,
2013-05-30 00:32:00,72.1,68.7,29.77,South,180,15.0,17.0,89,0.02,,,0.02,meteohub,2013-05-30 05:32:00,
2013-05-30 00:37:00,72.1,68.7,29.77,SE,135,13.0,15.0,89,0.02,,,0.02,meteohub,2013-05-30 05:37:00,
2013-05-30 00:42:00,72.1,68.4,29.77,SE,135,12.0,15.0,88,0.02,,,0.02,meteohub,2013-05-30 05:42:00,
2013-05-30 00:47:00,72.0,68.2,29.76,East,90,10.0,15.0,88,0.02,,,0.02,meteohub,2013-05-30 05:47:00,
2013-05-30 00:52:00,72.1,68.4,29.76,SE,135,15.0,15.0,88,0.02,,,0.02,meteohub,2013-05-30 05:52:00,
2013-05-30 00:57:00,72.1,68.0,29.76,SE,135,13.0,15.0,87,0.02,,,0.02,meteohub,2013-05-30 05:57:00,
2013-05-30 01:02:00,72.1,67.6,29.76,SE,135,13.0,21.0,86,0.02,,,0.02,meteohub,2013-05-30 06:02:00,
2013-05-30 01:07:00,72.3,67.8,29.76,East,90,13.0,21.0,86,0.01,,,0.02,meteohub,2013-05-30 06:07:00,
2013-05-30 01:12:00,72.3,67.6,29.76,SE,135,9.0,21.0,85,0.00,,,0.02,meteohub,2013-05-30 06:12:00,
2013-05-30 01:17:00,72.1,67.5,29.75,East,90,13.0,17.0,85,0.00,,,0.02,meteohub,2013-05-30 06:17:00,
2013-05-30 01:22:00,72.1,67.5,29.75,SE,135,15.0,15.0,85,0.00,,,0.02,meteohub,2013-05-30 06:22:00,
2013-05-30 01:27:00,72.0,66.9,29.75,SE,135,8.0,15.0,84,0.00,,,0.02,meteohub,2013-05-30 06:27:00,
2013-05-30 01:32:00,72.1,67.1,29.75,SE,135,15.0,15.0,84,0.00,,,0.02,meteohub,2013-05-30 06:32:00,
2013-05-30 01:37:00,72.1,66.7,29.75,South,180,15.0,17.0,83,0.00,,,0.02,meteohub,2013-05-30 06:37:00,
2013-05-30 01:42:00,72.1,66.4,29.74,SE,135,12.0,17.0,82,0.00,,,0.02,meteohub,2013-05-30 06:42:00,
2013-05-30 01:47:00,72.1,66.4,29.74,South,180,10.0,15.0,82,0.00,,,0.02,meteohub,2013-05-30 06:47:00,
2013-05-30 01:52:00,71.8,66.0,29.74,North,0,7.0,15.0,82,0.00,,,0.02,meteohub,2013-05-30 06:52:00,
2013-05-30 01:57:00,71.8,66.0,29.74,East,90,15.0,15.0,82,0.00,,,0.02,meteohub,2013-05-30 06:57:00,
2013-05-30 02:02:00,72.0,65.8,29.74,SE,135,16.0,18.0,81,0.00,,,0.02,meteohub,2013-05-30 07:02:00,
2013-05-30 02:07:00,72.0,65.8,29.74,SE,135,10.0,18.0,81,0.00,,,0.02,meteohub,2013-05-30 07:07:00,
2013-05-30 02:12:00,72.0,65.8,29.74,South,180,14.0,18.0,81,0.00,,,0.02,meteohub,2013-05-30 07:12:00,
2013-05-30 02:17:00,72.0,65.8,29.74,South,180,15.0,21.0,81,0.00,,,0.02,meteohub,2013-05-30 07:17:00,
2013-05-30 02:22:00,72.0,65.8,29.74,SE,135,13.0,21.0,81,0.00,,,0.02,meteohub,2013-05-30 07:22:00,
2013-05-30 02:27:00,71.8,65.7,29.74,South,180,15.0,21.0,81,0.00,,,0.02,meteohub,2013-05-30 07:27:00,
2013-05-30 02:32:00,71.6,65.8,29.74,South,180,13.0,18.0,82,0.00,,,0.02,meteohub,2013-05-30 07:32:00,
2013-05-30 02:37:00,71.6,65.8,29.75,SE,135,18.0,19.0,82,0.00,,,0.02,meteohub,2013-05-30 07:37:00,
2013-05-30 02:42:00,71.6,65.8,29.75,SE,135,12.0,19.0,82,0.00,,,0.02,meteohub,2013-05-30 07:42:00,
2013-05-30 02:47:00,71.6,65.8,29.74,East,90,17.0,19.0,82,0.00,,,0.02,meteohub,2013-05-30 07:47:00,
2013-05-30 02:52:00,71.6,65.8,29.75,SE,135,15.0,19.0,82,0.00,,,0.02,meteohub,2013-05-30 07:52:00,
2013-05-30 02:57:00,71.4,66.0,29.75,East,90,14.0,17.0,83,0.00,,,0.02,meteohub,2013-05-30 07:57:00,
2013-05-30 03:02:00,71.4,66.0,29.75,SE,135,15.0,17.0,83,0.00,,,0.02,meteohub,2013-05-30 08:02:00,
2013-05-30 03:07:00,71.4,66.0,29.75,SE,135,15.0,17.0,83,0.00,,,0.02,meteohub,2013-05-30 08:07:00,
2013-05-30 03:12:00,71.4,66.4,29.75,East,90,15.0,18.0,84,0.00,,,0.02,meteohub,2013-05-30 08:12:00,
2013-05-30 03:17:00,71.4,66.4,29.75,SE,135,16.0,18.0,84,0.00,,,0.02,meteohub,2013-05-30 08:17:00,
2013-05-30 03:22:00,71.2,66.6,29.75,SE,135,13.0,23.0,85,0.00,,,0.02,meteohub,2013-05-30 08:22:00,
2013-05-30 03:27:00,71.2,66.6,29.75,SE,135,13.0,23.0,85,0.00,,,0.02,meteohub,2013-05-30 08:27:00,
2013-05-30 03:32:00,71.1,66.4,29.75,SW,225,9.0,23.0,85,0.00,,,0.02,meteohub,2013-05-30 08:32:00,
2013-05-30 03:37:00,71.1,66.7,29.75,SE,135,11.0,17.0,86,0.00,,,0.02,meteohub,2013-05-30 08:37:00,
2013-05-30 03:42:00,71.1,66.7,29.74,SE,135,14.0,17.0,86,0.00,,,0.02,meteohub,2013-05-30 08:42:00,
2013-05-30 03:47:00,71.1,66.7,29.74,SE,135,11.0,17.0,86,0.00,,,0.02,meteohub,2013-05-30 08:47:00,
2013-05-30 03:52:00,70.9,66.6,29.75,SE,135,16.0,20.0,86,0.00,,,0.02,meteohub,2013-05-30 08:52:00,
2013-05-30 03:57:00,70.9,66.6,29.74,South,180,16.0,20.0,86,0.00,,,0.02,meteohub,2013-05-30 08:57:00,
2013-05-30 04:02:00,70.7,66.4,29.74,South,180,15.0,20.0,86,0.00,,,0.02,meteohub,2013-05-30 09:02:00,
2013-05-30 04:07:00,70.7,66.4,29.75,SE,135,17.0,17.0,86,0.00,,,0.02,meteohub,2013-05-30 09:07:00,
2013-05-30 04:12:00,70.7,66.4,29.75,South,180,13.0,17.0,86,0.00,,,0.02,meteohub,2013-05-30 09:12:00,
2013-05-30 04:17:00,70.9,66.6,29.74,SE,135,12.0,21.0,86,0.00,,,0.02,meteohub,2013-05-30 09:17:00,
2013-05-30 04:22:00,70.7,66.4,29.74,South,180,15.0,21.0,86,0.00,,,0.02,meteohub,2013-05-30 09:22:00,
2013-05-30 04:27:00,70.7,66.4,29.74,South,180,17.0,18.0,86,0.00,,,0.02,meteohub,2013-05-30 09:27:00,
2013-05-30 04:32:00,70.5,66.2,29.73,East,90,10.0,18.0,86,0.00,,,0.02,meteohub,2013-05-30 09:32:00,
2013-05-30 04:37:00,70.5,66.2,29.74,SE,135,12.0,18.0,86,0.00,,,0.02,meteohub,2013-05-30 09:37:00,
2013-05-30 04:42:00,70.3,66.0,29.73,East,90,14.0,18.0,86,0.00,,,0.02,meteohub,2013-05-30 09:42:00,
2013-05-30 04:47:00,70.3,66.0,29.74,SE,135,9.0,16.0,86,0.00,,,0.02,meteohub,2013-05-30 09:47:00,
2013-05-30 04:52:00,70.3,66.0,29.73,SE,135,14.0,17.0,86,0.00,,,0.02,meteohub,2013-05-30 09:52:00,
2013-05-30 04:57:00,70.3,66.0,29.74,South,180,13.0,17.0,86,0.00,,,0.02,meteohub,2013-05-30 09:57:00,
2013-05-30 05:02:00,70.2,65.8,29.73,South,180,13.0,17.0,86,0.00,,,0.02,meteohub,2013-05-30 10:02:00,
2013-05-30 05:07:00,70.2,65.8,29.73,South,180,13.0,15.0,86,0.00,,,0.02,meteohub,2013-05-30 10:07:00,
2013-05-30 05:12:00,70.0,65.7,29.73,East,90,13.0,15.0,86,0.00,,,0.02,meteohub,2013-05-30 10:12:00,
2013-05-30 05:17:00,70.2,65.5,29.73,SE,135,13.0,17.0,85,0.00,,,0.02,meteohub,2013-05-30 10:17:00,
2013-05-30 05:22:00,70.2,65.5,29.73,South,180,9.0,17.0,85,0.00,,,0.02,meteohub,2013-05-30 10:22:00,
2013-05-30 05:27:00,70.2,65.1,29.73,South,180,13.0,17.0,84,0.00,,,0.02,meteohub,2013-05-30 10:27:00,
2013-05-30 05:32:00,70.2,65.1,29.73,SE,135,17.0,19.0,84,0.00,,,0.02,meteohub,2013-05-30 10:32:00,
2013-05-30 05:37:00,70.3,64.9,29.73,SE,135,13.0,19.0,83,0.00,,,0.02,meteohub,2013-05-30 10:37:00,
2013-05-30 05:42:00,70.3,64.9,29.73,South,180,16.0,20.0,83,0.00,,,0.02,meteohub,2013-05-30 10:42:00,
2013-05-30 05:47:00,70.5,65.1,29.74,SE,135,13.0,20.0,83,0.00,,,0.02,meteohub,2013-05-30 10:47:00,
2013-05-30 05:52:00,70.5,65.1,29.74,East,90,11.0,20.0,83,0.00,,,0.02,meteohub,2013-05-30 10:52:00,
2013-05-30 05:57:00,70.3,64.9,29.74,SE,135,12.0,23.0,83,0.00,,,0.02,meteohub,2013-05-30 10:57:00,
2013-05-30 06:03:00,70.3,64.9,29.74,SE,135,12.0,23.0,83,0.00,,,0.02,meteohub,2013-05-30 11:03:00,
2013-05-30 06:08:00,70.3,64.9,29.74,South,180,13.0,23.0,83,0.00,,,0.02,meteohub,2013-05-30 11:08:00,
2013-05-30 06:13:00,70.5,65.1,29.74,SW,225,12.0,20.0,83,0.00,,,0.02,meteohub,2013-05-30 11:13:00,
2013-05-30 06:18:00,70.7,65.3,29.74,South,180,18.0,20.0,83,0.00,,,0.02,meteohub,2013-05-30 11:18:00,
2013-05-30 06:23:00,70.7,65.3,29.74,SE,135,14.0,21.0,83,0.00,,,0.02,meteohub,2013-05-30 11:23:00,
2013-05-30 06:28:00,70.5,65.5,29.74,South,180,11.0,21.0,84,0.00,,,0.02,meteohub,2013-05-30 11:28:00,
2013-05-30 06:33:00,70.5,65.5,29.74,East,90,17.0,19.0,84,0.00,,,0.02,meteohub,2013-05-30 11:33:00,
2013-05-30 06:38:00,70.7,65.7,29.74,South,180,10.0,19.0,84,0.00,,,0.02,meteohub,2013-05-30 11:38:00,
2013-05-30 06:43:00,70.7,65.7,29.74,SE,135,13.0,17.0,84,0.00,,,0.02,meteohub,2013-05-30 11:43:00,
2013-05-30 06:48:00,71.1,66.0,29.74,South,180,13.0,19.0,84,0.00,,,0.02,meteohub,2013-05-30 11:48:00,
2013-05-30 06:53:00,71.2,66.2,29.73,ESE,113,17.0,20.0,84,0.00,,,0.02,meteohub,2013-05-30 11:53:00,
2013-05-30 06:58:00,71.4,66.4,29.73,South,180,14.0,20.0,84,0.00,,,0.02,meteohub,2013-05-30 11:58:00,
2013-05-30 07:03:00,71.6,66.2,29.73,SE,135,15.0,20.0,83,0.00,,,0.02,meteohub,2013-05-30 12:03:00,
2013-05-30 07:08:00,71.6,66.2,29.73,SE,135,17.0,17.0,83,0.00,,,0.02,meteohub,2013-05-30 12:08:00,
2013-05-30 07:13:00,72.0,66.6,29.73,East,90,11.0,20.0,83,0.00,,,0.02,meteohub,2013-05-30 12:13:00,
2013-05-30 07:18:00,72.1,66.4,29.73,East,90,17.0,20.0,82,0.00,,,0.02,meteohub,2013-05-30 12:18:00,
2013-05-30 07:24:00,72.3,66.6,29.73,South,180,16.0,20.0,82,0.00,,,0.02,meteohub,2013-05-30 12:24:00,
2013-05-30 07:29:00,72.5,66.7,29.73,SE,135,17.0,19.0,82,0.00,,,0.02,meteohub,2013-05-30 12:29:00,
2013-05-30 07:34:00,72.7,66.9,29.73,SE,135,12.0,19.0,82,0.00,,,0.02,meteohub,2013-05-30 12:34:00,
2013-05-30 07:39:00,72.9,67.1,29.73,SE,135,9.0,17.0,82,0.00,,,0.02,meteohub,2013-05-30 12:39:00,
2013-05-30 07:44:00,73.0,67.3,29.73,SE,135,19.0,19.0,82,0.00,,,0.02,meteohub,2013-05-30 12:44:00,
2013-05-30 07:49:00,73.0,67.3,29.73,SE,135,12.0,20.0,82,0.00,,,0.02,meteohub,2013-05-30 12:49:00,
2013-05-30 07:54:00,73.0,67.3,29.73,East,90,22.0,22.0,82,0.00,,,0.02,meteohub,2013-05-30 12:54:00,
2013-05-30 07:59:00,73.4,67.6,29.73,South,180,15.0,20.0,82,0.00,,,0.02,meteohub,2013-05-30 12:59:00,
2013-05-30 08:04:00,73.8,68.0,29.73,South,180,14.0,22.0,82,0.00,,,0.02,meteohub,2013-05-30 13:04:00,
2013-05-30 08:09:00,74.1,68.2,29.72,SE,135,17.0,22.0,82,0.00,,,0.02,meteohub,2013-05-30 13:09:00,
2013-05-30 08:14:00,74.1,68.2,29.73,South,180,17.0,17.0,82,0.00,,,0.02,meteohub,2013-05-30 13:14:00,
2013-05-30 08:19:00,74.5,68.5,29.73,South,180,15.0,22.0,82,0.00,,,0.02,meteohub,2013-05-30 13:19:00,
2013-05-30 08:24:00,74.5,68.5,29.73,SW,225,9.0,22.0,82,0.00,,,0.02,meteohub,2013-05-30 13:24:00,
2013-05-30 08:29:00,74.8,68.9,29.73,South,180,16.0,22.0,82,0.00,,,0.02,meteohub,2013-05-30 13:29:00,
2013-05-30 08:34:00,74.7,68.7,29.73,SE,135,18.0,19.0,82,0.00,,,0.02,meteohub,2013-05-30 13:34:00,
2013-05-30 08:39:00,74.5,68.5,29.73,South,180,15.0,22.0,82,0.00,,,0.02,meteohub,2013-05-30 13:39:00,
2013-05-30 08:44:00,74.7,68.7,29.73,South,180,16.0,26.0,82,0.01,,,0.04,meteohub,2013-05-30 13:44:00,
2013-05-30 08:50:00,74.7,68.7,29.73,SE,135,13.0,26.0,82,0.01,,,0.04,meteohub,2013-05-30 13:50:00,
2013-05-30 08:55:00,74.8,68.9,29.73,South,180,8.0,26.0,82,0.01,,,0.04,meteohub,2013-05-30 13:55:00,
2013-05-30 09:00:00,75.2,68.9,29.73,SE,135,18.0,21.0,81,0.01,,,0.04,meteohub,2013-05-30 14:00:00,
2013-05-30 09:05:00,75.7,69.1,29.73,South,180,17.0,17.0,80,0.01,,,0.04,meteohub,2013-05-30 14:05:00,
2013-05-30 09:10:00,75.7,69.1,29.72,SE,135,12.0,18.0,80,0.01,,,0.04,meteohub,2013-05-30 14:10:00,
2013-05-30 09:15:00,76.3,69.6,29.71,South,180,11.0,21.0,80,0.01,,,0.04,meteohub,2013-05-30 14:15:00,
2013-05-30 09:20:00,76.6,70.0,29.71,SE,135,15.0,21.0,80,0.01,,,0.04,meteohub,2013-05-30 14:20:00,
2013-05-30 09:25:00,76.5,69.1,29.71,South,180,19.0,19.0,78,0.01,,,0.04,meteohub,2013-05-30 14:25:00,
2013-05-30 09:30:00,76.8,69.8,29.70,SE,135,15.0,26.0,79,0.01,,,0.04,meteohub,2013-05-30 14:30:00,
2013-05-30 09:35:00,77.0,69.3,29.70,SSW,203,15.0,26.0,77,0.01,,,0.04,meteohub,2013-05-30 14:35:00,
2013-05-30 09:40:00,76.8,69.4,29.70,SE,135,16.0,26.0,78,0.00,,,0.04,meteohub,2013-05-30 14:40:00,
2013-05-30 09:45:00,77.0,69.3,29.70,SE,135,19.0,26.0,77,0.00,,,0.04,meteohub,2013-05-30 14:45:00,
2013-05-30 09:50:00,76.8,69.4,29.70,SE,135,15.0,26.0,78,0.00,,,0.04,meteohub,2013-05-30 14:50:00,
2013-05-30 09:55:00,77.0,69.6,29.70,East,90,15.0,23.0,78,0.00,,,0.04,meteohub,2013-05-30 14:55:00,
2013-05-30 10:00:00,77.0,69.3,29.70,SE,135,18.0,23.0,77,0.00,,,0.04,meteohub,2013-05-30 15:00:00,
2013-05-30 10:05:00,76.6,69.6,29.71,South,180,14.0,25.0,79,0.00,,,0.04,meteohub,2013-05-30 15:05:00,
2013-05-30 10:10:00,76.6,69.6,29.71,South,180,11.0,25.0,79,0.00,,,0.04,meteohub,2013-05-30 15:10:00,
2013-05-30 10:15:00,76.3,69.3,29.72,SE,135,17.0,19.0,79,0.00,,,0.04,meteohub,2013-05-30 15:15:00,
2013-05-30 10:20:00,75.7,69.1,29.71,SE,135,17.0,23.0,80,0.00,,,0.04,meteohub,2013-05-30 15:20:00,
2013-05-30 10:26:00,75.7,69.4,29.71,South,180,17.0,23.0,81,0.00,,,0.04,meteohub,2013-05-30 15:26:00,
2013-05-30 10:31:00,75.6,69.6,29.72,SE,135,10.0,23.0,82,0.00,,,0.04,meteohub,2013-05-30 15:31:00,
2013-05-30 10:36:00,75.4,69.8,29.71,SE,135,11.0,19.0,83,0.00,,,0.04,meteohub,2013-05-30 15:36:00,
2013-05-30 10:41:00,75.0,70.2,29.72,South,180,14.0,17.0,85,0.00,,,0.04,meteohub,2013-05-30 15:41:00,
2013-05-30 10:46:00,74.8,70.0,29.72,SE,135,12.0,17.0,85,0.00,,,0.04,meteohub,2013-05-30 15:46:00,
2013-05-30 10:51:00,74.8,70.0,29.72,SE,135,11.0,19.0,85,0.00,,,0.04,meteohub,2013-05-30 15:51:00,
2013-05-30 10:56:00,75.0,70.2,29.72,SE,135,11.0,19.0,85,0.00,,,0.04,meteohub,2013-05-30 15:56:00,
2013-05-30 11:01:00,75.0,70.5,29.72,SW,225,14.0,19.0,86,0.00,,,0.04,meteohub,2013-05-30 16:01:00,
2013-05-30 11:06:00,75.7,70.5,29.71,SE,135,15.0,20.0,84,0.00,,,0.04,meteohub,2013-05-30 16:06:00,
2013-05-30 11:11:00,76.5,70.5,29.72,South,180,17.0,20.0,82,0.00,,,0.04,meteohub,2013-05-30 16:11:00,
2013-05-30 11:16:00,76.5,70.2,29.72,South,180,17.0,20.0,81,0.00,,,0.04,meteohub,2013-05-30 16:16:00,
2013-05-30 11:21:00,77.2,70.2,29.71,South,180,15.0,19.0,79,0.00,,,0.04,meteohub,2013-05-30 16:21:00,
2013-05-30 11:26:00,76.8,70.2,29.71,SE,135,15.0,21.0,80,0.00,,,0.04,meteohub,2013-05-30 16:26:00,
2013-05-30 11:31:00,76.6,70.0,29.72,South,180,14.0,21.0,80,0.00,,,0.04,meteohub,2013-05-30 16:31:00,
2013-05-30 11:36:00,77.7,70.3,29.71,South,180,11.0,27.0,78,0.00,,,0.04,meteohub,2013-05-30 16:36:00,
2013-05-30 11:41:00,77.7,70.3,29.71,South,180,15.0,27.0,78,0.00,,,0.04,meteohub,2013-05-30 16:41:00,
2013-05-30 11:46:00,78.1,70.0,29.71,South,180,17.0,27.0,76,0.00,,,0.04,meteohub,2013-05-30 16:46:00,
2013-05-30 11:51:00,78.3,69.3,29.71,SW,225,11.0,34.0,74,0.00,,,0.04,meteohub,2013-05-30 16:51:00,
2013-05-30 11:56:00,78.1,69.4,29.71,SW,225,22.0,34.0,75,0.00,,,0.04,meteohub,2013-05-30 16:56:00,
2013-05-30 12:01:00,79.2,69.3,29.70,South,180,18.0,34.0,72,0.00,,,0.04,meteohub,2013-05-30 17:01:00,
2013-05-30 12:06:00,79.5,69.3,29.70,South,180,25.0,25.0,71,0.00,,,0.04,meteohub,2013-05-30 17:06:00,
2013-05-30 12:11:00,79.5,68.9,29.71,SW,225,15.0,25.0,70,0.00,,,0.04,meteohub,2013-05-30 17:11:00,
2013-05-30 12:17:00,78.8,69.1,29.71,South,180,17.0,25.0,72,0.00,,,0.04,meteohub,2013-05-30 17:17:00,
2013-05-30 12:22:00,78.6,69.3,29.71,SE,135,16.0,25.0,73,0.00,,,0.04,meteohub,2013-05-30 17:22:00,
2013-05-30 12:27:00,78.6,69.6,29.70,SE,135,17.0,26.0,74,0.00,,,0.04,meteohub,2013-05-30 17:27:00,
2013-05-30 12:32:00,78.4,69.1,29.71,South,180,21.0,26.0,73,0.00,,,0.04,meteohub,2013-05-30 17:32:00,
2013-05-30 12:37:00,78.4,69.1,29.70,SW,225,13.0,30.0,73,0.00,,,0.04,meteohub,2013-05-30 17:37:00,
2013-05-30 12:42:00,78.6,69.6,29.70,South,180,21.0,30.0,74,0.00,,,0.04,meteohub,2013-05-30 17:42:00,
2013-05-30 12:47:00,78.3,68.9,29.71,South,180,23.0,23.0,73,0.00,,,0.04,meteohub,2013-05-30 17:47:00,
2013-05-30 12:52:00,78.3,69.3,29.71,SE,135,20.0,23.0,74,0.00,,,0.04,meteohub,2013-05-30 17:52:00,
2013-05-30 12:57:00,78.8,69.1,29.70,SE,135,30.0,30.0,72,0.00,,,0.04,meteohub,2013-05-30 17:57:00,
2013-05-30 13:02:00,79.0,69.3,29.70,SE,135,15.0,23.0,72,0.00,,,0.04,meteohub,2013-05-30 18:02:00,
2013-05-30 13:07:00,79.2,68.9,29.70,South,180,13.0,30.0,71,0.00,,,0.04,meteohub,2013-05-30 18:07:00,
2013-05-30 13:12:00,78.8,69.1,29.70,SW,225,15.0,30.0,72,0.00,,,0.04,meteohub,2013-05-30 18:12:00,
2013-05-30 13:17:00,79.2,69.8,29.70,SE,135,15.0,19.0,73,0.00,,,0.04,meteohub,2013-05-30 18:17:00,
2013-05-30 13:22:00,79.2,69.3,29.69,South,180,23.0,27.0,72,0.00,,,0.04,meteohub,2013-05-30 18:22:00,
2013-05-30 13:27:00,79.2,69.3,29.68,South,180,18.0,27.0,72,0.00,,,0.04,meteohub,2013-05-30 18:27:00,
2013-05-30 13:32:00,78.8,69.1,29.68,SE,135,10.0,27.0,72,0.00,,,0.04,meteohub,2013-05-30 18:32:00,
2013-05-30 13:37:00,78.4,69.1,29.68,East,90,18.0,23.0,73,0.00,,,0.04,meteohub,2013-05-30 18:37:00,
2013-05-30 13:42:00,78.8,69.8,29.68,SE,135,15.0,22.0,74,0.00,,,0.04,meteohub,2013-05-30 18:42:00,
2013-05-30 13:47:00,79.2,69.8,29.67,SE,135,14.0,22.0,73,0.00,,,0.04,meteohub,2013-05-30 18:47:00,
2013-05-30 13:52:00,79.3,70.0,29.66,South,180,11.0,20.0,73,0.00,,,0.04,meteohub,2013-05-30 18:52:00,
2013-05-30 13:57:00,79.0,69.3,29.66,SE,135,23.0,23.0,72,0.00,,,0.04,meteohub,2013-05-30 18:57:00,
2013-05-30 14:02:00,78.4,69.4,29.66,SE,135,16.0,27.0,74,0.00,,,0.04,meteohub,2013-05-30 19:02:00,
2013-05-30 14:07:00,78.3,69.6,29.65,South,180,18.0,27.0,75,0.00,,,0.04,meteohub,2013-05-30 19:07:00,
2013-05-30 14:12:00,78.8,69.8,29.65,SE,135,8.0,27.0,74,0.00,,,0.04,meteohub,2013-05-30 19:12:00,
2013-05-30 14:17:00,78.8,69.8,29.66,SE,135,15.0,21.0,74,0.00,,,0.04,meteohub,2013-05-30 19:17:00,
2013-05-30 14:22:00,79.7,70.3,29.65,SE,135,17.0,21.0,73,0.00,,,0.04,meteohub,2013-05-30 19:22:00,
2013-05-30 14:27:00,80.6,70.3,29.65,SE,135,13.0,21.0,71,0.00,,,0.04,meteohub,2013-05-30 19:27:00,
2013-05-30 14:32:00,80.6,68.5,29.64,SE,135,19.0,22.0,67,0.00,,,0.04,meteohub,2013-05-30 19:32:00,
2013-05-30 14:37:00,80.4,67.1,29.65,East,90,13.0,23.0,64,0.00,,,0.04,meteohub,2013-05-30 19:37:00,
2013-05-30 14:42:00,79.9,66.6,29.65,SW,225,14.0,26.0,64,0.00,,,0.04,meteohub,2013-05-30 19:42:00,
2013-05-30 14:47:00,79.3,67.8,29.65,NE,45,14.0,26.0,68,0.00,,,0.04,meteohub,2013-05-30 19:47:00,
2013-05-30 14:52:00,79.0,68.0,29.64,SE,135,19.0,21.0,69,0.00,,,0.04,meteohub,2013-05-30 19:52:00,
2013-05-30 14:57:00,78.4,68.7,29.65,East,90,15.0,27.0,72,0.00,,,0.04,meteohub,2013-05-30 19:57:00,
2013-05-30 15:02:00,78.3,68.5,29.66,SE,135,25.0,27.0,72,0.00,,,0.04,meteohub,2013-05-30 20:02:00,
2013-05-30 15:07:00,77.2,68.2,29.65,SW,225,23.0,27.0,74,0.00,,,0.04,meteohub,2013-05-30 20:07:00,
2013-05-30 15:12:00,75.7,69.1,29.65,South,180,25.0,30.0,80,0.02,,,0.06,meteohub,2013-05-30 20:12:00,
2013-05-30 15:17:00,73.4,68.9,29.65,South,180,16.0,30.0,86,0.02,,,0.06,meteohub,2013-05-30 20:17:00,
2013-05-30 15:22:00,72.3,68.9,29.68,South,180,17.0,30.0,89,0.04,,,0.07,meteohub,2013-05-30 20:22:00,
2013-05-30 15:27:00,72.0,69.3,29.67,SE,135,10.0,25.0,91,0.05,,,0.08,meteohub,2013-05-30 20:27:00,
2013-05-30 15:32:00,72.0,69.4,29.68,SE,135,12.0,20.0,92,0.05,,,0.08,meteohub,2013-05-30 20:32:00,
2013-05-30 15:37:00,72.1,69.6,29.67,SW,225,9.0,17.0,92,0.05,,,0.08,meteohub,2013-05-30 20:37:00,
2013-05-30 15:43:00,71.8,69.3,29.67,SW,225,12.0,15.0,92,0.05,,,0.08,meteohub,2013-05-30 20:43:00,
2013-05-30 15:48:00,71.6,69.1,29.66,SE,135,7.0,23.0,92,0.06,,,0.09,meteohub,2013-05-30 20:48:00,
2013-05-30 15:53:00,71.4,69.3,29.67,South,180,7.0,23.0,93,0.06,,,0.09,meteohub,2013-05-30 20:53:00,
2013-05-30 15:58:00,71.2,69.1,29.67,SE,135,8.0,23.0,93,0.07,,,0.11,meteohub,2013-05-30 20:58:00,
2013-05-30 16:03:00,70.9,68.7,29.66,SE,135,10.0,17.0,93,0.07,,,0.11,meteohub,2013-05-30 21:03:00,
2013-05-30 16:08:00,70.7,68.9,29.66,SE,135,11.0,17.0,94,0.07,,,0.11,meteohub,2013-05-30 21:08:00,
2013-05-30 16:13:00,70.7,68.9,29.65,South,180,15.0,15.0,94,0.05,,,0.11,meteohub,2013-05-30 21:13:00,
2013-05-30 16:18:00,70.7,68.9,29.64,East,90,9.0,15.0,94,0.04,,,0.11,meteohub,2013-05-30 21:18:00,
2013-05-30 16:24:00,70.7,69.3,29.63,SE,135,11.0,15.0,95,0.02,,,0.11,meteohub,2013-05-30 21:24:00,
2013-05-30 16:29:00,70.9,69.4,29.63,South,180,17.0,17.0,95,0.02,,,0.11,meteohub,2013-05-30 21:29:00,
2013-05-30 16:34:00,71.4,70.0,29.63,South,180,8.0,17.0,95,0.02,,,0.11,meteohub,2013-05-30 21:34:00,
2013-05-30 16:39:00,71.6,69.4,29.62,SE,135,8.0,17.0,93,0.02,,,0.11,meteohub,2013-05-30 21:39:00,
2013-05-30 16:44:00,71.6,69.1,29.63,SE,135,6.0,17.0,92,0.02,,,0.11,meteohub,2013-05-30 21:44:00,
2013-05-30 16:49:00,71.8,69.3,29.64,South,180,8.0,17.0,92,0.01,,,0.11,meteohub,2013-05-30 21:49:00,
2013-05-30 16:54:00,72.5,70.0,29.65,SE,135,11.0,17.0,92,0.01,,,0.11,meteohub,2013-05-30 21:54:00,
2013-05-30 16:59:00,72.5,69.4,29.65,East,90,11.0,11.0,90,0.00,,,0.11,meteohub,2013-05-30 21:59:00,
2013-05-30 17:04:00,73.2,70.2,29.65,South,180,11.0,11.0,90,0.00,,,0.11,meteohub,2013-05-30 22:04:00,
2013-05-30 17:09:00,72.7,69.3,29.64,South,180,19.0,19.0,89,0.00,,,0.11,meteohub,2013-05-30 22:09:00,
2013-05-30 17:14:00,72.5,69.8,29.63,East,90,15.0,17.0,91,0.09,,,0.20,meteohub,2013-05-30 22:14:00,
2013-05-30 17:19:00,72.9,70.2,29.62,SE,135,12.0,19.0,91,0.09,,,0.20,meteohub,2013-05-30 22:19:00,
2013-05-30 17:24:00,72.7,70.0,29.62,SE,135,13.0,19.0,91,0.09,,,0.20,meteohub,2013-05-30 22:24:00,
2013-05-30 17:29:00,72.7,70.0,29.62,SE,135,9.0,17.0,91,0.09,,,0.20,meteohub,2013-05-30 22:29:00,
2013-05-30 17:34:00,72.3,69.6,29.62,SE,135,11.0,13.0,91,0.09,,,0.20,meteohub,2013-05-30 22:34:00,
2013-05-30 17:39:00,71.8,69.1,29.61,SE,135,11.0,13.0,91,0.09,,,0.20,meteohub,2013-05-30 22:39:00,
2013-05-30 17:45:00,71.8,69.1,29.62,SE,135,11.0,15.0,91,0.09,,,0.20,meteohub,2013-05-30 22:45:00,
2013-05-30 17:50:00,71.8,69.3,29.61,SE,135,6.0,15.0,92,0.09,,,0.20,meteohub,2013-05-30 22:50:00,
2013-05-30 17:55:00,71.6,69.1,29.62,South,180,27.0,27.0,92,0.09,,,0.20,meteohub,2013-05-30 22:55:00,
2013-05-30 18:00:00,71.1,68.9,29.65,SW,225,27.0,27.0,93,0.15,,,0.34,meteohub,2013-05-30 23:00:00,
2013-05-30 18:05:00,69.1,66.7,29.64,South,180,13.0,35.0,92,0.28,,,0.39,meteohub,2013-05-30 23:05:00,
2013-05-30 18:10:00,67.6,65.8,29.62,South,180,15.0,35.0,94,0.19,,,0.39,meteohub,2013-05-30 23:10:00,
2013-05-30 18:15:00,66.9,65.5,29.63,SE,135,11.0,27.0,95,0.19,,,0.39,meteohub,2013-05-30 23:15:00,
2013-05-30 18:20:00,66.6,65.3,29.65,South,180,8.0,21.0,96,0.19,,,0.39,meteohub,2013-05-30 23:20:00,
2013-05-30 18:25:00,66.2,65.3,29.65,East,90,7.0,15.0,97,0.19,,,0.39,meteohub,2013-05-30 23:25:00,
2013-05-30 18:30:00,65.8,65.5,29.65,East,90,9.0,15.0,99,0.19,,,0.39,meteohub,2013-05-30 23:30:00,
2013-05-30 18:35:00,66.2,65.7,29.65,South,180,8.0,13.0,98,0.19,,,0.39,meteohub,2013-05-30 23:35:00,
2013-05-30 18:40:00,66.2,65.8,29.65,South,180,5.0,11.0,99,0.19,,,0.39,meteohub,2013-05-30 23:40:00,
2013-05-30 18:46:00,66.4,66.0,29.65,SE,135,7.0,10.0,99,0.19,,,0.39,meteohub,2013-05-30 23:46:00,
2013-05-30 18:51:00,66.4,66.0,29.65,SE,135,8.0,10.0,99,0.19,,,0.39,meteohub,2013-05-30 23:51:00,
2013-05-30 18:56:00,66.2,65.8,29.66,South,180,8.0,9.0,99,0.09,,,0.39,meteohub,2013-05-30 23:56:00,
2013-05-30 19:01:00,66.2,65.8,29.66,SE,135,8.0,13.0,99,0.01,,,0.39,meteohub,2013-05-31 00:01:00,
2013-05-30 19:06:00,66.2,65.8,29.66,SE,135,8.0,13.0,99,0.00,,,0.00,meteohub,2013-05-31 00:06:00,
2013-05-30 19:11:00,66.2,65.8,29.66,SE,135,8.0,15.0,99,0.00,,,0.00,meteohub,2013-05-31 00:11:00,
2013-05-30 19:16:00,66.4,65.8,29.65,SE,135,8.0,15.0,98,0.00,,,0.00,meteohub,2013-05-31 00:16:00,
2013-05-30 19:21:00,66.2,65.7,29.66,SE,135,10.0,15.0,98,0.00,,,0.00,meteohub,2013-05-31 00:21:00,
2013-05-30 19:26:00,66.2,65.7,29.67,South,180,8.0,15.0,98,0.00,,,0.00,meteohub,2013-05-31 00:26:00,
2013-05-30 19:31:00,66.2,65.7,29.68,SE,135,8.0,15.0,98,0.00,,,0.00,meteohub,2013-05-31 00:31:00,
2013-05-30 19:36:00,66.2,65.7,29.69,SW,225,10.0,15.0,98,0.01,,,0.01,meteohub,2013-05-31 00:36:00,
2013-05-30 19:41:00,65.8,65.3,29.70,South,180,15.0,15.0,98,0.01,,,0.01,meteohub,2013-05-31 00:41:00,
2013-05-30 19:46:00,65.8,64.9,29.70,South,180,11.0,15.0,97,0.01,,,0.01,meteohub,2013-05-31 00:46:00,
2013-05-30 19:51:00,65.7,64.8,29.70,SE,135,15.0,15.0,97,0.01,,,0.01,meteohub,2013-05-31 00:51:00,
2013-05-30 19:56:00,65.5,64.6,29.70,SE,135,20.0,21.0,97,0.01,,,0.01,meteohub,2013-05-31 00:56:00,
2013-05-30 20:02:00,65.1,64.2,29.69,SE,135,11.0,21.0,97,0.01,,,0.01,meteohub,2013-05-31 01:02:00,
2013-05-30 20:07:00,64.8,63.9,29.69,East,90,11.0,20.0,97,0.01,,,0.01,meteohub,2013-05-31 01:07:00,
2013-05-30 20:12:00,64.6,64.0,29.69,South,180,9.0,20.0,98,0.01,,,0.01,meteohub,2013-05-31 01:12:00,
2013-05-30 20:17:00,64.0,63.1,29.69,SE,135,12.0,14.0,97,0.01,,,0.01,meteohub,2013-05-31 01:17:00,
2013-05-30 20:22:00,64.0,63.1,29.70,SE,135,16.0,16.0,97,0.01,,,0.01,meteohub,2013-05-31 01:22:00,
2013-05-30 20:27:00,63.9,63.0,29.70,SE,135,9.0,16.0,97,0.01,,,0.01,meteohub,2013-05-31 01:27:00,
2013-05-30 20:32:00,63.9,63.0,29.70,SE,135,14.0,17.0,97,0.01,,,0.01,meteohub,2013-05-31 01:32:00,
2013-05-30 20:37:00,63.7,62.8,29.70,SE,135,16.0,17.0,97,0.00,,,0.01,meteohub,2013-05-31 01:37:00,
2013-05-30 20:42:00,63.3,62.4,29.70,East,90,10.0,17.0,97,0.00,,,0.01,meteohub,2013-05-31 01:42:00,
2013-05-30 20:47:00,63.1,62.2,29.70,SE,135,9.0,16.0,97,0.00,,,0.01,meteohub,2013-05-31 01:47:00,
2013-05-30 20:52:00,63.0,62.1,29.70,SE,135,11.0,16.0,97,0.00,,,0.01,meteohub,2013-05-31 01:52:00,
2013-05-30 20:57:00,62.8,61.9,29.69,SE,135,12.0,13.0,97,0.01,,,0.02,meteohub,2013-05-31 01:57:00,
2013-05-30 21:02:00,62.6,61.7,29.70,SE,135,9.0,13.0,97,0.01,,,0.02,meteohub,2013-05-31 02:02:00,
2013-05-30 21:07:00,62.6,61.7,29.70,South,180,13.0,15.0,97,0.01,,,0.02,meteohub,2013-05-31 02:07:00,
2013-05-30 21:12:00,62.1,61.5,29.70,SE,135,11.0,15.0,98,0.01,,,0.02,meteohub,2013-05-31 02:12:00,
2013-05-30 21:17:00,62.1,61.5,29.70,SE,135,11.0,15.0,98,0.01,,,0.02,meteohub,2013-05-31 02:17:00,
2013-05-30 21:22:00,62.1,61.5,29.70,SE,135,16.0,16.0,98,0.01,,,0.02,meteohub,2013-05-31 02:22:00,
2013-05-30 21:27:00,61.9,61.3,29.70,SE,135,16.0,19.0,98,0.02,,,0.04,meteohub,2013-05-31 02:27:00,
2013-05-30 21:33:00,61.9,61.3,29.70,East,90,12.0,19.0,98,0.02,,,0.04,meteohub,2013-05-31 02:33:00,
2013-05-30 21:38:00,61.9,61.3,29.70,SE,135,14.0,19.0,98,0.02,,,0.04,meteohub,2013-05-31 02:38:00,
2013-05-30 21:43:00,61.9,61.3,29.71,SE,135,12.0,17.0,98,0.02,,,0.04,meteohub,2013-05-31 02:43:00,
2013-05-30 21:48:00,61.9,61.3,29.70,East,90,12.0,18.0,98,0.02,,,0.04,meteohub,2013-05-31 02:48:00,
2013-05-30 21:53:00,61.9,61.3,29.70,East,90,11.0,18.0,98,0.02,,,0.04,meteohub,2013-05-31 02:53:00,
2013-05-30 21:58:00,61.9,61.3,29.70,SE,135,11.0,17.0,98,0.01,,,0.04,meteohub,2013-05-31 02:58:00,
2013-05-30 22:03:00,61.9,61.3,29.70,SE,135,11.0,17.0,98,0.02,,,0.05,meteohub,2013-05-31 03:03:00,
2013-05-30 22:08:00,61.9,61.3,29.69,South,180,10.0,15.0,98,0.02,,,0.05,meteohub,2013-05-31 03:08:00,
2013-05-30 22:13:00,61.9,61.3,29.70,East,90,10.0,14.0,98,0.02,,,0.05,meteohub,2013-05-31 03:13:00,
2013-05-30 22:18:00,61.7,61.2,29.70,SE,135,10.0,14.0,98,0.02,,,0.05,meteohub,2013-05-31 03:18:00,
2013-05-30 22:23:00,61.7,61.2,29.69,South,180,15.0,15.0,98,0.01,,,0.05,meteohub,2013-05-31 03:23:00,
2013-05-30 22:28:00,61.7,61.2,29.70,East,90,11.0,13.0,98,0.02,,,0.06,meteohub,2013-05-31 03:28:00,
2013-05-30 22:33:00,61.5,61.0,29.70,South,180,11.0,15.0,98,0.02,,,0.06,meteohub,2013-05-31 03:33:00,
2013-05-30 22:38:00,61.5,61.0,29.70,SE,135,15.0,15.0,98,0.02,,,0.06,meteohub,2013-05-31 03:38:00,
2013-05-30 22:44:00,61.5,61.0,29.70,SE,135,17.0,17.0,98,0.02,,,0.06,meteohub,2013-05-31 03:44:00,
2013-05-30 22:49:00,61.5,61.0,29.70,SE,135,15.0,17.0,98,0.02,,,0.06,meteohub,2013-05-31 03:49:00,
2013-05-30 22:54:00,61.5,61.0,29.70,SE,135,11.0,17.0,98,0.02,,,0.06,meteohub,2013-05-31 03:54:00,
2013-05-30 22:59:00,61.5,61.0,29.70,South,180,15.0,17.0,98,0.01,,,0.06,meteohub,2013-05-31 03:59:00,
2013-05-30 23:01:00,61.5,61.0,29.70,SE,135,10.0,18.0,98,0.01,,,0.06,meteohub,2013-05-31 04:01:00,
2013-05-30 23:02:00,61.5,61.0,29.70,SE,135,12.0,18.0,98,0.01,,,0.06,meteohub,2013-05-31 04:02:00,
2013-05-30 23:04:00,61.5,61.0,29.70,SE,135,15.0,18.0,98,0.01,,,0.06,meteohub,2013-05-31 04:04:00,
2013-05-30 23:08:00,61.5,61.0,29.70,SE,135,13.0,18.0,98,0.01,,,0.06,meteohub,2013-05-31 04:08:00,
2013-05-30 23:13:00,61.5,61.0,29.70,SE,135,10.0,15.0,98,0.01,,,0.06,meteohub,2013-05-31 04:13:00,
2013-05-30 23:18:00,61.5,61.0,29.70,SE,135,10.0,15.0,98,0.01,,,0.06,meteohub,2013-05-31 04:18:00,
2013-05-30 23:22:00,61.5,61.0,29.69,East,90,11.0,14.0,98,0.01,,,0.06,meteohub,2013-05-31 04:22:00,
2013-05-30 23:27:00,61.5,61.0,29.70,SE,135,11.0,14.0,98,0.00,,,0.06,meteohub,2013-05-31 04:27:00,
2013-05-30 23:32:00,61.5,61.0,29.70,SE,135,9.0,12.0,98,0.00,,,0.06,meteohub,2013-05-31 04:32:00,
2013-05-30 23:38:00,61.5,61.0,29.70,SE,135,8.0,12.0,98,0.00,,,0.06,meteohub,2013-05-31 04:38:00,
2013-05-30 23:43:00,61.5,61.0,29.70,East,90,12.0,16.0,98,0.00,,,0.06,meteohub,2013-05-31 04:43:00,
2013-05-30 23:48:00,61.5,61.0,29.70,SE,135,15.0,16.0,98,0.00,,,0.06,meteohub,2013-05-31 04:48:00,
2013-05-30 23:53:00,61.5,61.0,29.70,SE,135,15.0,16.0,98,0.00,,,0.06,meteohub,2013-05-31 04:53:00,
2013-05-30 23:58:00,61.7,61.2,29.70,East,90,15.0,15.0,98,0.00,,,0.06,meteohub,2013-05-31 04:58:00,